x

Port Sanilac, Mi (pscm4) Weather Station

1:50am - Fri 21st Nov 2014 All times are CST. -6 hours from GMT.

  • Wind
    13mph, 20mph gusts
  • Air Temp 14°f
  • Sea Pressure 1022.4mb
  • Port Sanilac, Mi
  • Port Sanilac, Mi

More Historic Weather Station data

Upgrade to MSW Pro to gain access to the past 30 days of data for over 8000 Wavebouys and Weather Stations around the globe.

Join Pro

Comparision Forecast

View Surf forecast
   
Fri 11/21 1:50am 13 20 mph 1022.4mb 14f
1:40am 13 21 mph 1022mb 15f
1:30am 13 18 mph 1022mb 15f
1:20am 13 16 mph 1021.7mb 15f
1:10am 13 18 mph 1021.7mb 15f
1:00am 13 17 mph 1021.3mb 15f
12:50am 11 17 mph 1021.3mb 15f
12:40am 11 16 mph 1021mb 15f
12:30am 11 16 mph 1021mb 15f
12:20am 9 16 mph 1021mb 15f
12:10am 10 15 mph 1020.7mb 15f
12:00am 10 15 mph 1020.7mb 15f
Thu 11/20 11:50pm 10 13 mph 1020.3mb 16f
11:40pm 9 13 mph 1020.3mb 16f
11:30pm 8 16 mph 1020.3mb 16f
11:20pm 9 13 mph 1020mb 16f
11:10pm 9 14 mph 1019.6mb 16f
11:00pm 8 15 mph 1019.6mb 16f
10:50pm 10 14 mph 1019.3mb 16f
10:40pm 10 15 mph 1019.3mb 16f
10:30pm 10 14 mph 1019mb 16f
10:20pm 10 16 mph 1019mb 16f
10:10pm 10 17 mph 1018.6mb 17f
10:00pm 9 16 mph 1018.6mb 17f
9:50pm 9 15 mph 1018.6mb 17f
9:40pm 9 17 mph 1018.3mb 17f
9:30pm 8 15 mph 1018.3mb 17f
9:20pm 9 16 mph 1017.9mb 17f
9:10pm 9 16 mph 1017.9mb 17f
9:00pm 10 17 mph 1017.9mb 17f
8:50pm 10 17 mph 1017.6mb 18f
8:40pm 9 15 mph 1017.6mb 18f
8:30pm 8 17 mph 1017.6mb 18f
8:20pm 11 17 mph 1017.3mb 18f
8:10pm 10 17 mph 1017.3mb 18f
8:00pm 13 18 mph 1016.9mb 18f
7:50pm 11 17 mph 1016.9mb 19f
7:40pm 10 16 mph 1016.9mb 19f
7:30pm 8 17 mph 1016.9mb 19f
7:20pm 10 16 mph 1016.9mb 19f
7:10pm 10 18 mph 1016.9mb 19f
7:00pm 10 18 mph 1016.6mb 19f
6:50pm 13 17 mph 1016.6mb 19f
6:40pm 13 20 mph 1016.3mb 19f
6:30pm 11 20 mph 1016.3mb 19f
6:20pm 13 17 mph 1016.3mb 20f
6:10pm 10 15 mph 1015.9mb 20f
5:00pm 9 14 mph 1014.9mb 21f
4:50pm 10 15 mph 1014.9mb 21f
4:40pm 9 16 mph 1014.6mb 21f
4:30pm 9 18 mph 1014.2mb 21f
4:20pm 9 17 mph 1013.9mb 21f
4:10pm 8 20 mph 1013.9mb 22f
4:00pm 11 18 mph 1013.5mb 22f
3:50pm 14 18 mph 1013.5mb 22f
3:40pm 10 18 mph 1013.2mb 23f
3:30pm 13 24 mph 1012.9mb 23f
3:20pm 13 21 mph 1012.9mb 23f
3:10pm 10 20 mph 1012.5mb 23f
3:00pm 11 24 mph 1012.5mb 22f
2:50pm 11 21 mph 1012.2mb 25f
2:40pm 13 21 mph 1012.2mb 24f
2:30pm 13 21 mph 1011.9mb 24f
2:20pm 17 25 mph 1011.9mb 24f
2:10pm 11 23 mph 1011.9mb 24f
2:00pm 11 22 mph 1011.9mb 24f
1:50pm 14 22 mph 1011.5mb 24f
1:40pm 14 21 mph 1011.5mb 24f
1:30pm 15 21 mph 1011.2mb 24f
1:20pm 11 23 mph 1011.2mb 24f
1:10pm 16 26 mph 1011.2mb 24f
1:00pm 17 25 mph 1010.8mb 24f
12:50pm 21 29 mph 1011.2mb 24f
12:40pm 16 28 mph 1011.2mb 24f
12:30pm 14 22 mph 1010.8mb 24f
12:20pm 15 22 mph 1010.8mb 25f
12:10pm 15 26 mph 1010.8mb 24f
12:00pm 13 26 mph 1010.8mb 25f
11:50am 17 25 mph 1010.5mb 24f
11:40am 15 21 mph 1010.8mb 24f
11:30am 14 23 mph 1010.8mb 25f
11:20am 13 24 mph 1010.8mb 25f
11:10am 16 26 mph 1010.8mb 25f
11:00am 17 31 mph 1010.8mb 25f
10:50am 18 24 mph 1010.5mb 25f
10:40am 17 24 mph 1010.5mb 25f
10:30am 16 24 mph 1010.8mb 25f
10:20am 15 22 mph 1010.8mb 25f
10:10am 13 24 mph 1011.2mb 25f
10:00am 14 21 mph 1010.8mb 24f
9:50am 15 26 mph 1010.8mb 24f
9:40am 17 26 mph 1010.8mb 24f
9:30am 15 26 mph 1011.2mb 24f
9:20am 18 24 mph 1010.8mb 24f
9:10am 16 25 mph 1010.8mb 24f
9:00am 16 23 mph 1010.8mb 24f
8:50am 16 22 mph 1010.8mb 24f
8:40am 15 22 mph 1010.8mb 23f
8:30am 13 22 mph 1010.8mb 23f
8:20am 15 25 mph 1010.8mb 23f
8:10am 11 17 mph 1010.8mb 23f
8:00am 10 18 mph 1010.8mb 22f
7:50am 14 18 mph 1010.8mb 22f
7:40am 10 17 mph 1010.8mb 22f
7:30am 10 16 mph 1010.5mb 21f
7:20am 9 15 mph 1010.5mb 21f
7:10am 10 15 mph 1010.2mb 21f
7:00am 10 16 mph 1010.2mb 21f
6:50am 10 15 mph 1010.2mb 21f
6:40am 9 17 mph 1010.2mb 20f
6:30am 10 17 mph 1010.2mb 20f
6:20am 9 17 mph 1010.2mb 20f
6:10am 10 17 mph 1009.8mb 21f
6:00am 11 18 mph 1009.8mb 21f
5:50am 13 20 mph 1009.8mb 21f
5:40am 10 23 mph 1009.8mb 21f
5:30am 11 15 mph 1009.5mb 21f
5:20am 10 21 mph 1009.5mb 21f
5:10am 13 21 mph 1009.5mb 21f
5:00am 15 23 mph 1009.5mb 21f
4:50am 15 24 mph 1009.5mb 22f
4:40am 16 22 mph 1009.5mb 22f
4:30am 13 22 mph 1009.5mb 22f
4:20am 13 21 mph 1009.5mb 22f
4:10am 11 21 mph 1009.5mb 22f
4:00am 13 24 mph 1009.1mb 22f
3:50am 15 24 mph 1009.1mb 22f
3:40am 16 22 mph 1009.1mb 22f
3:30am 10 21 mph 1009.1mb 22f
3:20am 13 20 mph 1009.1mb 22f
3:10am 11 23 mph 1009.1mb 21f
3:00am 11 20 mph 1009.1mb 22f
2:50am 11 21 mph 1009.1mb 22f
2:40am 11 20 mph 1009.1mb 22f
2:30am 15 22 mph 1008.8mb 22f
2:20am 11 22 mph 1009.1mb 22f
2:10am 14 21 mph 1008.8mb 22f
2:00am 13 20 mph 1009.1mb 22f
1:50am 13 21 mph 1009.1mb 22f
1:40am 11 18 mph 1008.8mb 22f
1:30am 13 20 mph 1008.8mb 22f
1:20am 13 22 mph 1008.8mb 22f
1:10am 13 18 mph 1008.8mb 23f
1:00am 11 20 mph 1008.5mb 23f
12:50am 10 18 mph 1008.5mb 23f
12:40am 10 18 mph 1008.5mb 23f
12:30am 14 21 mph 1008.1mb 23f
12:20am 13 21 mph 1008.5mb 24f
12:10am 14 25 mph 1008.5mb 24f
12:00am 11 22 mph 1008.5mb 24f
Wed 11/19 11:50pm 13 28 mph 1008.5mb 24f
11:40pm 13 21 mph 1008.1mb 24f
11:30pm 13 21 mph 1008.1mb 24f
11:20pm 11 17 mph 1008.1mb 24f
11:10pm 14 22 mph 1008.1mb 25f
11:00pm 14 21 mph 1007.8mb 24f
10:50pm 13 25 mph 1008.1mb 25f
10:40pm 13 20 mph 1007.8mb 25f
10:30pm 14 21 mph 1007.8mb 25f
10:20pm 15 23 mph 1007.8mb 25f
10:10pm 17 29 mph 1007.8mb 25f
10:00pm 14 24 mph 1007.5mb 25f
9:50pm 15 21 mph 1007.5mb 25f
9:40pm 13 22 mph 1007.5mb 26f
9:30pm 10 18 mph 1007.5mb 26f
9:20pm 13 23 mph 1007.5mb 26f
9:10pm 13 18 mph 1007.5mb 26f
9:00pm 11 18 mph 1007.5mb 26f
8:50pm 14 22 mph 1007.1mb 26f
8:40pm 14 28 mph 1007.5mb 26f
8:30pm 15 24 mph 1007.1mb 26f
8:20pm 17 25 mph 1007.1mb 26f
8:10pm 15 25 mph 1007.1mb 26f
8:00pm 13 28 mph 1006.8mb 27f
7:50pm 13 28 mph 1006.4mb 27f
7:40pm 15 26 mph 1006.4mb 27f
7:30pm 10 21 mph 1006.4mb 27f
7:20pm 11 24 mph 1006.4mb 27f
7:10pm 17 26 mph 1006.4mb 27f
7:00pm 16 25 mph 1006.4mb 27f
6:50pm 14 23 mph 1006.1mb 27f
6:40pm 15 20 mph 1006.1mb 27f
6:30pm 9 15 mph 1006.1mb 26f
6:20pm 10 18 mph 1005.8mb 26f
6:10pm 11 18 mph 1005.4mb 26f
6:00pm 13 17 mph 1005.4mb 26f
5:50pm 13 18 mph 1005.4mb 25f
5:40pm 13 21 mph 1005.4mb 25f
5:30pm 15 21 mph 1005.1mb 25f
5:20pm 15 20 mph 1005.1mb 25f
5:10pm 14 17 mph 1005.1mb 25f
5:00pm 15 21 mph 1005.1mb 25f
4:50pm 13 20 mph 1005.1mb 25f
4:40pm 11 17 mph 1005.1mb 25f
4:30pm 13 20 mph 1005.1mb 25f
4:20pm 13 20 mph 1005.1mb 25f
4:10pm 13 17 mph 1005.1mb 25f
4:00pm 14 18 mph 1005.1mb 24f
3:50pm 13 16 mph 1005.1mb 25f
3:40pm 13 21 mph 1005.1mb 25f
3:30pm 16 22 mph 1005.1mb 25f
3:20pm 15 17 mph 1005.1mb 25f
3:10pm 14 22 mph 1005.4mb 25f
3:00pm 16 22 mph 1005.4mb 25f
2:50pm 16 22 mph 1005.4mb 25f
2:40pm 16 26 mph 1005.4mb 25f
2:30pm 18 25 mph 1005.8mb 25f
2:20pm 17 24 mph 1005.4mb 26f
2:10pm 18 24 mph 1005.4mb 26f
2:00pm 18 25 mph 1005.8mb 26f
1:50pm 17 23 mph 1005.8mb 26f
1:40pm 21 24 mph 1006.1mb 26f
1:30pm 20 29 mph 1006.1mb 26f
1:20pm 20 25 mph 1006.4mb 26f
1:10pm 22 28 mph 1006.8mb 26f
1:00pm 21 28 mph 1007.1mb 25f
12:50pm 25 29 mph 1007.1mb 25f
12:40pm 22 29 mph 1007.5mb 26f
12:30pm 23 26 mph 1007.8mb 25f
12:20pm 24 30 mph 1007.8mb 25f
12:10pm 23 29 mph 1008.1mb 26f
12:00pm 23 30 mph 1008.5mb 26f
11:50am 18 24 mph 1008.8mb 26f
11:40am 20 30 mph 1009.1mb 25f
11:30am 24 30 mph 1009.5mb 25f
11:20am 22 28 mph 1009.8mb 25f
11:10am 22 25 mph 1010.2mb 25f
11:00am 18 22 mph 1010.8mb 24f
10:50am 18 23 mph 1011.2mb 24f
10:40am 21 26 mph 1011.5mb 24f
10:30am 20 29 mph 1012.2mb 24f
10:20am 23 28 mph 1012.5mb 24f
10:10am 17 26 mph 1012.9mb 24f
10:00am 22 26 mph 1012.9mb 23f
9:50am 21 24 mph 1013.2mb 23f
9:40am 18 22 mph 1013.2mb 23f
9:30am 15 22 mph 1013.5mb 22f
9:20am 17 23 mph 1013.9mb 22f
9:10am 17 23 mph 1014.2mb 21f
9:00am 16 21 mph 1014.2mb 21f
8:50am 16 22 mph 1014.2mb 20f
8:40am 16 18 mph 1014.6mb 20f
8:30am 15 29 mph 1014.6mb 20f
8:20am 15 23 mph 1014.9mb 20f
8:10am 18 23 mph 1014.9mb 20f
8:00am 16 21 mph 1014.9mb 20f
7:50am 15 21 mph 1014.9mb 19f
7:40am 14 18 mph 1015.2mb 19f
7:30am 11 18 mph 1015.2mb 20f
7:20am 16 21 mph 1015.2mb 19f
7:10am 13 20 mph 1015.6mb 19f
7:00am 17 24 mph 1015.6mb 19f
6:50am 17 23 mph 1015.6mb 19f
6:40am 15 23 mph 1015.9mb 19f
6:30am 17 22 mph 1015.6mb 19f
6:20am 16 21 mph 1015.9mb 19f
6:10am 15 20 mph 1015.9mb 19f
6:00am 13 18 mph 1015.9mb 19f
5:50am 13 16 mph 1015.9mb 18f
5:40am 11 17 mph 1015.9mb 18f
5:30am 11 20 mph 1015.9mb 18f
5:20am 14 18 mph 1015.9mb 18f
5:10am 13 20 mph 1016.3mb 18f
5:00am 10 20 mph 1015.9mb 18f
4:50am 10 16 mph 1015.9mb 18f
4:40am 11 17 mph 1015.9mb 18f
4:30am 11 18 mph 1016.3mb 18f
4:20am 11 18 mph 1015.9mb 17f
4:10am 11 23 mph 1016.3mb 17f
4:00am 13 21 mph 1016.3mb 17f
3:50am 11 20 mph 1016.3mb 18f
3:40am 15 22 mph 1016.3mb 17f
3:30am 9 15 mph 1016.3mb 17f
3:20am 9 14 mph 1016.6mb 17f
3:10am 10 14 mph 1016.9mb 16f
3:00am 11 16 mph 1016.9mb 16f
2:50am 10 18 mph 1016.9mb 16f
2:40am 13 17 mph 1016.9mb 16f
2:30am 11 16 mph 1016.9mb 15f
2:20am 13 20 mph 1016.9mb 15f
2:10am 10 16 mph 1017.3mb 16f
2:00am 11 17 mph 1017.3mb 15f
1:50am 13 16 mph 1017.3mb 16f
1:40am 13 18 mph 1017.3mb 16f
1:30am 11 20 mph 1017.3mb 16f
1:20am 13 17 mph 1017.3mb 16f
1:10am 11 20 mph 1017.3mb 16f
1:00am 13 18 mph 1017.3mb 16f
12:50am 14 20 mph 1017.3mb 16f
12:40am 11 17 mph 1017.3mb 16f
12:30am 11 20 mph 1017.3mb 16f
12:20am 10 18 mph 1017.3mb 16f
12:10am 9 15 mph 1017.3mb 16f
12:00am 11 16 mph 1017.3mb 16f
Tue 11/18 11:50pm 10 16 mph 1017.3mb 16f
11:40pm 10 15 mph 1017.6mb 16f
11:30pm 10 16 mph 1017.3mb 16f
11:20pm 11 15 mph 1017.3mb 16f
11:10pm 11 16 mph 1017.3mb 16f
11:00pm 11 17 mph 1017.3mb 16f
10:50pm 11 20 mph 1017.3mb 16f
10:40pm 10 21 mph 1017.3mb 17f
10:30pm 11 18 mph 1016.9mb 16f
10:20pm 13 18 mph 1016.9mb 17f
10:10pm 11 18 mph 1016.9mb 17f
10:00pm 11 18 mph 1016.9mb 17f
9:50pm 10 18 mph 1016.9mb 17f
9:40pm 11 23 mph 1016.6mb 17f
9:30pm 13 22 mph 1016.6mb 17f
9:20pm 11 17 mph 1016.6mb 18f
9:10pm 11 21 mph 1016.6mb 18f
9:00pm 13 20 mph 1016.3mb 18f
8:50pm 13 20 mph 1016.3mb 18f
8:40pm 13 18 mph 1015.9mb 18f
8:30pm 9 18 mph 1015.9mb 18f
8:20pm 14 21 mph 1015.9mb 18f
8:10pm 10 18 mph 1015.9mb 18f
8:00pm 13 20 mph 1015.6mb 19f
7:50pm 14 23 mph 1015.6mb 19f
7:40pm 15 24 mph 1015.6mb 19f
7:30pm 16 28 mph 1015.2mb 19f
7:20pm 13 23 mph 1015.2mb 19f
7:10pm 14 25 mph 1014.9mb 19f
7:00pm 17 31 mph 1014.9mb 20f
6:50pm 17 28 mph 1014.9mb 20f
6:40pm 15 29 mph 1014.6mb 20f
6:30pm 14 26 mph 1014.6mb 20f
6:20pm 18 28 mph 1014.2mb 20f
6:10pm 14 28 mph 1014.2mb 20f
6:00pm 18 31 mph 1013.9mb 20f
5:50pm 16 28 mph 1013.5mb 20f
5:40pm 17 28 mph 1013.5mb 21f
5:30pm 20 30 mph 1013.2mb 21f
5:20pm 21 28 mph 1013.2mb 21f
5:10pm 18 31 mph 1012.9mb 21f
5:00pm 20 25 mph 1012.9mb 21f
4:50pm 18 33 mph 1012.9mb 21f
4:40pm 17 26 mph 1012.2mb 21f
4:30pm 18 33 mph 1012.2mb 22f
4:20pm 20 29 mph 1012.2mb 21f
4:10pm 20 30 mph 1011.9mb 22f
4:00pm 18 32 mph 1011.9mb 22f
3:50pm 21 33 mph 1011.5mb 22f
3:40pm 18 30 mph 1011.5mb 22f
3:30pm 18 30 mph 1011.5mb 22f
3:20pm 17 29 mph 1011.2mb 24f
3:10pm 23 33 mph 1010.8mb 24f
3:00pm 20 33 mph 1010.8mb 24f
2:50pm 21 30 mph 1010.2mb 24f
2:40pm 17 32 mph 1010.5mb 25f
2:30pm 23 32 mph 1010.2mb 25f
2:20pm 25 36 mph 1010.2mb 24f
2:10pm 22 33 mph 1009.8mb 24f
2:00pm 21 32 mph 1009.8mb 24f
1:50pm 20 36 mph 1009.5mb 24f
1:40pm 16 36 mph 1009.1mb 24f
1:30pm 22 37 mph 1009.1mb 24f
1:20pm 18 36 mph 1009.5mb 24f
1:10pm 23 38 mph 1009.1mb 24f
1:00pm 23 34 mph 1009.1mb 24f
12:50pm 23 36 mph 1008.8mb 23f
12:40pm 25 41 mph 1008.8mb 23f
12:30pm 23 36 mph 1008.8mb 23f
12:20pm 22 33 mph 1008.8mb 23f
12:10pm 17 34 mph 1008.8mb 23f
12:00pm 26 38 mph 1008.5mb 23f
11:50am 23 34 mph 1008.8mb 23f
11:40am 22 37 mph 1008.8mb 23f
11:30am 23 36 mph 1008.1mb 23f
11:20am 22 37 mph 1008.1mb 22f
11:10am 21 36 mph 1008.5mb 22f
11:00am 22 34 mph 1007.5mb 23f
10:50am 28 37 mph 1008.5mb 22f
10:40am 18 38 mph 1008.5mb 22f
10:30am 23 38 mph 1008.5mb 22f
10:20am 24 37 mph 1008.5mb 21f
10:10am 28 36 mph 1008.1mb 21f
10:00am 22 31 mph 1008.1mb 21f
9:50am 18 33 mph 1008.1mb 20f
9:40am 21 31 mph 1008.1mb 20f
9:30am 23 36 mph 1007.5mb 20f
9:20am 21 33 mph 1008.1mb 20f
9:10am 20 32 mph 1007.8mb 19f
9:00am 22 29 mph 1008.1mb 19f
8:50am 15 25 mph 1008.5mb 18f
8:40am 17 32 mph 1008.1mb 18f
8:30am 20 34 mph 1008.1mb 18f
8:20am 24 33 mph 1008.1mb 18f
8:10am 18 32 mph 1007.8mb 17f
8:00am 21 31 mph 1007.8mb 17f
7:50am 20 28 mph 1007.8mb 17f
7:40am 16 28 mph 1007.8mb 17f
7:30am 18 29 mph 1007.8mb 17f
7:20am 17 32 mph 1007.8mb 17f
7:10am 15 28 mph 1007.8mb 17f
7:00am 17 29 mph 1007.5mb 17f
6:50am 16 26 mph 1007.5mb 16f
6:40am 17 25 mph 1007.1mb 16f
6:30am 20 28 mph 1007.1mb 16f
6:20am 15 29 mph 1006.8mb 17f
6:10am 17 25 mph 1006.8mb 17f
6:00am 16 25 mph 1006.8mb 17f
5:50am 15 25 mph 1006.4mb 17f
5:40am 13 26 mph 1006.8mb 17f
5:30am 18 26 mph 1006.4mb 17f
5:20am 18 33 mph 1006.4mb 17f
5:10am 15 24 mph 1006.4mb 17f
5:00am 17 29 mph 1006.4mb 17f
4:50am 18 31 mph 1006.1mb 17f
4:40am 16 26 mph 1005.8mb 17f
4:30am 21 28 mph 1005.8mb 17f
4:20am 17 28 mph 1006.1mb 17f
4:10am 14 25 mph 1005.8mb 17f
4:00am 16 25 mph 1005.8mb 17f
3:50am 16 29 mph 1005.8mb 17f
3:40am 11 25 mph 1005.8mb 17f
3:30am 16 28 mph 1005.8mb 17f
3:20am 16 25 mph 1005.4mb 17f
3:10am 17 24 mph 1005.8mb 17f
3:00am 17 25 mph 1005.8mb 17f
2:50am 15 23 mph 1005.8mb 17f
2:40am 15 23 mph 1005.8mb 17f
2:30am 16 29 mph 1005.8mb 17f
2:20am 16 29 mph 1006.1mb 17f
2:10am 14 26 mph 1005.4mb 17f
2:00am 13 29 mph 1005.8mb 17f
1:50am 18 28 mph 1005.8mb 17f
1:40am 15 23 mph 1005.8mb 17f
1:30am 15 23 mph 1005.8mb 17f
1:20am 11 23 mph 1006.1mb 17f
1:10am 15 24 mph 1006.1mb 17f
1:00am 14 24 mph 1005.8mb 18f
12:50am 16 23 mph 1005.8mb 17f
12:40am 13 21 mph 1005.4mb 18f
12:30am 13 24 mph 1005.8mb 18f
12:20am 13 28 mph 1005.8mb 18f
12:10am 16 25 mph 1005.8mb 18f
12:00am 16 23 mph 1005.8mb 19f
Mon 11/17 11:50pm 15 22 mph 1005.8mb 18f
11:40pm 13 21 mph 1005.8mb 18f
11:30pm 14 24 mph 1005.8mb 18f
11:20pm 16 24 mph 1005.8mb 18f
11:10pm 17 28 mph 1006.1mb 18f
11:00pm 11 17 mph 1006.1mb 18f
10:50pm 10 20 mph 1006.1mb 18f
10:40pm 14 23 mph 1006.1mb 18f
10:30pm 10 20 mph 1006.1mb 18f
10:20pm 17 25 mph 1006.1mb 18f
10:10pm 17 24 mph 1006.1mb 18f
10:00pm 14 24 mph 1006.1mb 18f
9:50pm 14 22 mph 1006.1mb 19f
9:40pm 13 24 mph 1006.1mb 19f
9:30pm 14 22 mph 1006.1mb 19f
9:20pm 17 24 mph 1006.1mb 19f
9:10pm 16 21 mph 1006.1mb 19f
9:00pm 16 23 mph 1006.1mb 20f
8:50pm 11 22 mph 1006.1mb 19f
8:40pm 15 22 mph 1006.1mb 20f
8:30pm 14 23 mph 1005.8mb 20f
8:20pm 13 21 mph 1005.8mb 20f
8:10pm 13 22 mph 1006.1mb 21f
8:00pm 10 17 mph 1006.1mb 21f
7:50pm 11 20 mph 1006.1mb 20f
7:40pm 16 24 mph 1006.1mb 20f
7:30pm 9 18 mph 1006.1mb 22f
7:20pm 11 22 mph 1006.1mb 22f
7:10pm 13 20 mph 1006.1mb 22f
7:00pm 10 18 mph 1006.1mb 22f
6:50pm 9 20 mph 1006.1mb 22f
6:40pm 14 20 mph 1006.1mb 22f
6:30pm 11 16 mph 1006.1mb 22f
6:20pm 10 17 mph 1006.1mb 22f
6:10pm 11 18 mph 1005.8mb 22f
6:00pm 13 18 mph 1005.8mb 22f
5:50pm 9 22 mph 1005.8mb 23f
5:40pm 10 20 mph 1005.4mb 23f
5:30pm 11 20 mph 1005.4mb 23f
5:20pm 11 18 mph 1005.4mb 23f
5:10pm 15 22 mph 1005.4mb 23f
5:00pm 9 20 mph 1005.4mb 24f
4:50pm 17 25 mph 1005.1mb 24f
4:40pm 18 28 mph 1004.7mb 24f
4:30pm 10 22 mph 1004.7mb 24f
4:20pm 14 20 mph 1004.7mb 24f
4:10pm 15 22 mph 1004.7mb 24f
4:00pm 16 24 mph 1004.4mb 24f
3:50pm 20 29 mph 1004.1mb 25f
3:40pm 14 23 mph 1004.1mb 24f
3:30pm 14 24 mph 1004.1mb 24f
3:20pm 14 24 mph 1003.7mb 25f
3:10pm 16 25 mph 1003.4mb 25f
3:00pm 17 23 mph 1003.4mb 25f
2:50pm 15 22 mph 1003.4mb 26f
2:40pm 17 24 mph 1002.7mb 26f
2:30pm 16 24 mph 1002.7mb 27f
2:20pm 15 24 mph 1002.4mb 28f
2:10pm 16 26 mph 1002.4mb 28f
2:00pm 11 25 mph 1002.4mb 28f
1:50pm 17 26 mph 1002.4mb 28f
1:40pm 20 28 mph 1002mb 29f
1:30pm 17 26 mph 1002.4mb 29f
1:20pm 15 22 mph 1002mb 28f
1:10pm 16 22 mph 1002mb 28f
1:00pm 13 22 mph 1002mb 28f
12:50pm 20 26 mph 1002.4mb 28f
12:40pm 16 24 mph 1002.4mb 28f
12:30pm 16 23 mph 1002mb 28f
12:20pm 16 23 mph 1002mb 28f
12:10pm 14 20 mph 1002mb 28f
12:00pm 11 20 mph 1002mb 29f
11:50am 11 18 mph 1002mb 29f
11:40am 9 18 mph 1002.4mb 29f
11:30am 10 16 mph 1002.4mb 29f
11:20am 10 16 mph 1002.4mb 30f
11:10am 10 17 mph 1002.7mb 30f
11:00am 11 14 mph 1002.7mb 31f
10:50am 7 16 mph 1002.7mb 32f
10:40am 8 13 mph 1002.7mb 32f
10:30am 9 14 mph 1002.7mb 31f
10:20am 10 13 mph 1003mb 31f
10:10am 10 13 mph 1003mb 31f
10:00am 7 11 mph 1003.4mb 31f
9:50am 9 14 mph 1003.7mb 31f
9:40am 8 14 mph 1003.7mb 31f
9:30am 8 13 mph 1003.7mb 31f
9:20am 8 14 mph 1003.7mb 31f
9:10am 7 11 mph 1003.7mb 31f
9:00am 8 13 mph 1003.7mb 31f
8:50am 9 11 mph 1004.1mb 31f